COSMOS 1691 DEB, 43315

Orbit data source: Space-Track

COSMOS 1691 DEB, 43315 is space debris in LEO originally from a launch on Wed, 09 Oct 1985 UTC launched from the Plesetsk Missile And Space Complex (PKMTR). Debris objects in space refer to the collection of defunct objects orbiting the Earth. Examples of debris include non-operational satellites, rocket bodies, and fragments generated from explosions, collisions, or faulty payload assembly.

Loading next visibility...
Identifier
43315, 1985-094Z
Orbit
LEO
Country
Flag of CISCIS
Related business
Manufacturer
Unknown
Mission
Spacecraft
Bus & Motor
Unknown
Mass
Unknown
Launch date (UTC)
1985-10-09 (41 years ago)
Launch vehicle
Unknown
Launch site
Plesetsk Missile And Space Complex (PKMTR)
Object type
Payload
Rocket body
Debris
Shape & HBR
Unknown shape, 0.1 m
Radar Cross Section
Medium (>0.1 m² and <1 m²)

Expand to show TLE details & history
Last TLE update: 2 days ago

TLE from 2 days ago
0 COSMOS 1691 DEB
1 43315U 85094Z   26171.23320243  .00000184  00000-0  88334-3 0  9990
2 43315  82.5643 153.4623 0020991 338.7087  21.3132 12.69265935582237
Epoch: 2026-06-20T05:35Z
TLE epoch observation values (Epoch: 2026-06-20T05:35:48.689Z)
Latitude
-0.00011°
Longitude
161.05865°
Altitude
1,372.492 km
Speed
7.18 km/s
True Right ascension
10h 13m 50s
True Declination
0° 00' 00"
Sunlit
Object was in daylight at epoch
Visualization orbit readout
Latitude
Unknown
Longitude
Unknown
Altitude
Unknown
Speed
Unknown
Apparent Right ascension
Unknown
Apparent Declination
Unknown
Sunlit
N/A
Visualization observer readout
Local Sidereal Time
21:37:24
Azimuth
Unknown
Elevation
Unknown
Doppler factor
Unknown
Orbital elements
Apogee altitude
1,398.533 km
Perigee altitude
1,365.953 km
Semi-major axis
7,760.38 km
Eccentricity
0.0021
Inclination
82.5643°
RAAN
153.4623°
Arg. of periapsis
338.7087°
True anomaly
21.40084°
Mean anomaly
21.3132°
Eccentric anomaly
21.357°
Mean motion
3.17482 °/min
Orbital period
113.39 mins
BSTAR
0.00088334
Loading maneuver chart data...
Computing Atmospheric mass density...
Loading historical data...
Loading historical data...
Loading historical data...
Loading historical data...
Loading historical data...
Loading historical data...
Loading historical data...

Documentation

Showing up to 5 results
|